User: anonymous   Login
Location: Unspecified
(0.0000°N, 0.0000°E)
Time: 04:17:43
(UTC+02:00)
Language:

Cosmos 494 Rocket - Orbit

View from above orbital plane
View from above orbital plane
View from above satellite
View from above satellite

Ground track
Ground track

The orbit data is extracted from the following two-line orbital elements,

1 06061U 72043B   14295.14893862  .00000437  00000-0  14632-3 0  5631
2 06061 074.0569 169.5944 0020118 186.7335 287.2039 14.40201730218799
Epoch (UTC): 22 October 2014 03:34:28
Eccentricity: 0.0020118
inclination: 74.0569°
perigee height: 743 km
apogee height: 772 km
right ascension of ascending node: 169.5944°
argument of perigee: 186.7335°
revolutions per day: 14.40201730
mean anomaly at epoch: 287.2039°
orbit number at epoch: 21879

The dashed part of the orbit path shows where the satellite is in the earth's shadow,  

DLR